www.pogodaiklimat.ru

Погода и климат >> Архив погоды >> Россия >> Астраханская область >> Досанг


ПОГОДА в Досанге

  • Прогноз погоды в Досанге
  • Монитор погоды в Досанге
  • Климат города

АРХИВ ПОГОДЫ в Досанге

Время (UTC), дата Ветер
(напр.,м/с)
 
Видим.   Явления Облачность Т
(С)
Тd
(С)
f
(%)
Тe
(С)
Тes
(С)
Комфортность P
(гПа)
Po
(гПа)
Тmin
(С)
Tmax
(С)
R
(мм)
R24
(мм)
S
(см)
00 18.05 штиль 0 10 км 3/0
[Ac As]
+13.7 +11.2 85 +13 +13 1016.8 1019.0
03 18.05 штиль 0 10 км 3/0
[Ac As]
+13.7 +11.2 85 +13 +15 1016.8 1019.0
06 18.05 ЮВ 3 20 км 8/0
[Cc]
+15.7 +12.3 80 +15 +23 1017.4 1019.6 +9.8
09 18.05 Ю 3 20 км 10/1 600 м
[Cu med, cong Ac cast Cs]
+24.1 +5.3 30 +24 +31 комфорт 1016.6 1018.7
12 18.05 ЮВ 5 20 км 10/3 600 м
[Cu med, cong Ac cast Cc]
+24.3 +5.8 30 +24 +26 комфорт 1016.2 1018.3
15 18.05 Ю 4 20 км 9/1 600 м
[Cu med, cong Cc]
+21.9 +7.2 39 +23 +23 комфорт 1016.7 1018.8 +25.4
18 18.05 ЮВ 3 10 км 10/0
[Ac cast]
+18.4 +8.8 54 +19 +19 1017.6 1019.7
21 18.05 ЮВ 1 10 км 10/0
[Ac As]
+17.0 +10.5 66 +18 +18 1017.0 1019.1
00 19.05 СВ 1 10 км 10/6 300 м
[Frnb As op]
+15.8 +11.8 77 +17 +17 1015.8 1018.0
03 19.05 СВ 2 10 км слабый дождь 10/8 300 м
[Frnb As op]
+15.5 +13.5 88 +15 +15 1014.7 1016.8 +15.0 0.5
06 19.05 СВ 3 10 км слабый дождь 10/8 300 м
[Frnb As op]
+15.8 +13.9 88 +15 +16 1014.2 1016.3
09 19.05 СВ 4 20 км в посл. час дождь 10/9 300 м
[Frnb As op]
+16.1 +14.9 93 +15 +15 1013.0 1015.1
12 19.05 ЮВ 6
{10}
20 км {дождь} 10/0
[Ac und]
+19.9 +11.8 60 +21 +22 комфорт 1011.2 1013.3
15 19.05 Ю 2 20 км 10/10 300 м
[Sc]
+18.4 +13.4 73 +19 +19 1010.8 1013.0 +20.3 8
18 19.05 Ю 1 10 км 10/10 300 м
[Sc]
+16.8 +13.8 82 +18 +18 1011.1 1013.3
21 19.05 Ю 2 10 км ясно +15.0 +13.5 91 +15 +15 1010.6 1012.8
00 20.05 штиль 0 10 км 10/0
[Ac und]
+12.7 +11.9 95 +12 +12 1009.7 1011.9
03 20.05 В 3 4000 м дымка 10/0
[Ac und]
+15.6 +14.8 95 +15 +15 1008.6 1010.7 +12.7
06 20.05 СВ 3 20 км 10/0
[Cc]
+21.3 +13.2 60 +24 +32 комфорт 1007.2 1009.3
09 20.05 В 2 20 км 10/0
[Cs]
+25.0 +10.7 41 +26 +40 жарко 1005.4 1007.5
12 20.05 Ю 2 20 км 10/3 600 м
[Cb cap Ac As]
+22.9 +12.8 53 +26 +28 жарко 1004.0 1006.1
15 20.05 З 4 20 км 10/0
[Ac As]
+19.6 +15.1 75 +22 +22 комфорт 1003.7 1005.8 +25.1
18 20.05 СЗ 3 10 км 10/0
[Ac und]
+18.4 +13.4 73 +19 +19 1003.6 1005.7
21 20.05 З 4 10 км 10/0
[Ac und]
+16.1 +12.5 79 +15 +15 1004.1 1006.2
00 21.05 З 4 10 км 10/0
[Ac trans Ci sp]
+13.9 +12.0 88 +12 +12 1003.3 1005.5
03 21.05 З 4 20 км 10/10 600 м
[Sc]
+13.2 +11.6 90 +11 +11 1003.9 1006.1 +13.0
06 21.05 З 3 20 км 3/3 600 м
[Cu hum]
+17.2 +11.6 70 +17 +24 1004.3 1006.4
09 21.05 З 4 20 км 4/1 600 м
[Cu hum Ci sp]
+22.1 +8.3 41 +23 +33 комфорт 1003.5 1005.6
12 21.05 З 4 20 км 8/0
[Ci sp]
+23.4 +6.4 33 +24 +30 комфорт 1003.3 1005.4
15 21.05 З 4
{10}
20 км 8/0
[Ci sp]
+21.8 +6.8 38 +23 +23 комфорт 1003.5 1005.6 +23.9
18 21.05 ЮЗ 2 10 км 4/0
[Ci fib]
+18.2 +9.6 57 +19 +19 1004.8 1006.9
21 21.05 З 2 10 км 3/0
[Ci fib]
+16.6 +9.7 64 +17 +17 1004.1 1006.3
00 22.05 З 3 10 км 9/0
[Ac As]
+15.9 +11.8 77 +15 +15 1004.4 1006.6
03 22.05 З 2 10 км слабый дождь 10/6 300 м
[Frnb As op]
+15.7 +12.2 80 +16 +16 1004.6 1006.7 +15.5 0.0
06 22.05 З 4 20 км {дождь} 5/3 600 м
[Cu hum Ac trans Ci sp]
+20.4 +11.6 57 +22 +27 комфорт 1004.4 1006.5
09 22.05 З 4
{10}
20 км 5/4 600 м
[Cu med, cong Ci sp]
+22.2 +11.5 51 +24 +32 комфорт 1004.7 1006.8
12 22.05 З 4 20 км 8/6 600 м
[Cu med, cong Ac cuf]
+23.7 +9.4 40 +25 +26 комфорт 1004.5 1006.6
15 22.05 З 3 20 км 9/5 600 м
[Sc diur, vesp Ci fib]
+23.0 +9.9 43 +25 +25 комфорт 1005.2 1007.3 +24.5
18 22.05 З 1 10 км 5/3 600 м
[Sc diur, vesp Ci fib]
+19.1 +12.7 66 +21 +21 комфорт 1007.0 1009.1
21 22.05 З 1 10 км 5/0
[Ci fib]
+16.4 +13.1 81 +17 +17 1007.3 1009.4
00 23.05 СЗ 3
{10}
10 км 8/0
[Cs]
+13.1 +10.5 84 +12 +12 1008.7 1010.9
03 23.05 СЗ 4 20 км 10/3 600 м
[Cu hum Ac cast Cc]
+13.2 +10.5 84 +11 +12 1010.2 1012.3 +12.2
06 23.05 СЗ 3 20 км 10/5 600 м
[Cu med, cong Ac trans Cc]
+14.7 +8.3 65 +14 +16 1012.2 1014.4
09 23.05 З 3 20 км 10/3 600 м
[Cu med, cong Ac und]
+17.0 +8.2 56 +17 +20 1013.7 1015.8
12 23.05 З 2 20 км 9/4 600 м
[Cu med, cong Ac trans]
+18.4 +6.1 44 +19 +22 1013.7 1015.8
15 23.05 С 3 20 км 8/0
[Ac trans Cc]
+18.6 +2.2 33 +19 +20 1013.8 1015.9 +19.4
18 23.05 СЗ 3 10 км ясно +14.0 +3.8 50 +13 +13 1015.8 1018.0
21 23.05 С 3 10 км ясно +10.6 +5.5 71 +9 +9 1016.6 1018.8
00 24.05 СВ 3 10 км ясно +8.7 +2.9 67 +6 +6 1017.6 1019.8
03 24.05 СВ 4 20 км 5/0
[Ci fib]
+11.5 +1.7 51 +10 +11 1018.8 1021.0 +7.7
06 24.05 СВ 5 20 км 4/0
[Ci sp]
+18.1 -1.0 27 +18 +24 1018.9 1021.1
09 24.05 С 4 20 км 8/0
[Ci sp]
+20.2 -3.1 21 +20 +30 1018.2 1020.3
12 24.05 СВ 5 20 км 10/0
[Cs]
+21.7 -4.9 16 +20 +25 1016.8 1018.9
15 24.05 СВ 4
{10}
20 км 10/0
[Cs]
+21.2 -5.3 16 +20 +21 1017.0 1019.1 +22.3
18 24.05 С 3 10 км 10/0
[Cs]
+14.8 -1.1 34 +14 +14 1018.3 1020.5

 

Местоположение метеостанции Досанг (Астраханская область, Россия): широта 46.92 долгота 47.93 высота над уровнем моря -19 м.

В архиве по умолчанию представлена погода в Досанге за последнюю неделю. Архивные данные за месяц целиком и за предыдущие месяцы, начиная с января 2011 года, Вы можете получить, выбрав интересующий диапазон дат из раскрывающегося списка и нажав кнопку "Ввод!".

Внимание! Время в таблицах - всемирное. Для получения местного времени необходимо прибавить поправку, которая в Досанге равна 4 ч.

Смотрите также архив погоды в соседних городах и на ближайших метеорологических станциях:

Погода в Астрахани (Астраханская область, Россия) (71 км)
Погода в Харабали (Астраханская область, Россия) (74 км)
Погода в Зеленге (Астраханская область, Россия) (98 км)
Погода в Ганюшкино (Атырауская область, Казахстан) (108 км)
Погода в Юсте (Калмыкия, Россия) (124 км)
Погода в Жанауштогане (Атырауская область, Казахстан) (127 км)
Погода в Лимане (Астраханская область, Россия) (136 км)
Погода в Утте (Калмыкия, Россия) (158 км)
Погода в Исатай (Атырауская область, Казахстан) (163 км)
Погода в Верхнем Баскунчаке (Астраханская область, Россия) (170 км)

Пояснения к столбцам:

Ветер - указаны скорость ветра в м/с - средняя за 10 мин, порывы в срок и между сроками (в фигурных скобках) и направление, откуда дует ветер: С - северный, СВ - северо-восточный, В - восточный, ЮВ - юго-восточный, Ю - южный, ЮЗ - юго-западный, З - западный, СЗ - северо-западный.
Видимость - горизонтальная дальность видимости в метрах или километрах. При видимости от 1 до 10 км при отсутствии осадков обычно наблюдается дымка, при ухудшении видимости до 1 км и менее - туман. В сухую погоду видимость может ухудшаться дымом, пылью или мглою.
Явления - указаны атмосферные явления, наблюдавшиеся в срок или в последний час перед сроком; фигурными скобками обозначены явления, наблюдавшиеся между сроками (за 1-3 часа до срока); квадратными скобками обозначены град или гололедные отложения с указанием их диаметра в мм.
Облачность - указаны через наклонную черту общая и нижняя облачность в баллах и высота нижней границы облаков в метрах; квадратными скобками обозначены формы облаков: Ci - перистые, Cs - перисто-слоистые, Cc - перисто-кучевые, Ac - высококучевые, As - высокослоистые, Sc - слоисто-кучевые, Ns - слоисто-дождевые, Cu - кучевые, Cb - кучево-дождевые. Подробнее классификацию облаков см. в Атласе облаков (PDF).
T - Температура воздуха - температура, измеренная на высоте 2 м над землей.
Td - Температура точки росы - температура, при понижении до которой содержащийся в воздухе водяной пар достигнет насыщения.
f - Относительная влажность воздуха - влажноcть воздуха, измеренная на высоте 2 м над землей.
Te - Эффективная температура - температура, которую ощущает одетый по сезону человек в тени. Характеристика душности погоды. При расчете учитывается влияние влажности воздуха и скорости ветра на теплоощущения человека.
Tes - Эффективная температура на солнце - температура, которую ощущает человек, с поправкой на солнечный нагрев. Характеристика знойности погоды. Зависит от высоты солнца над горизонтом, облачности и скорости ветра. Ночью, в пасмурную погоду, а также при ветре 12 м/с и более поправка равна нулю.
P - Атмосферное давление - приведенное к уровню моря атмосферное давление.
Po - Атмосферное давление - измеренное на уровне метеостанции атмосферное давление.
Tmin - Минимальная температура - минимум температуры воздуха на высоте 2 м над землей.
Tmax - Максимальная температура - максимум температуры воздуха на высоте 2 м над землей.
R - Количество осадков - Количество выпавших осадков за период времени, мм. При наведении курсора мыши на число - период времени, за который выпало указанное количество осадков.
R24 - Количество осадков - Количество выпавших осадков за 24 часа, мм.
S - Снежный покров - Высота снежного покрова, см. При наведении курсора мыши на число - состояние снежного покрова и степень покрытия местности в баллах.